Regional Weather Roundup
Issued by NWS Jackson, KY

Home | Current Version | Previous Version | Graphics & Text | Print | Product List | Glossary On
Versions: 1 2 3 4 5 6 7 8 9 10 11 12 13 14 15 16 17 18 19 20 21 22 23 24 25 26 27 28
000
ASUS43 KJKL 271110
RWRJKL

EAST KENTUCKY HOURLY WEATHER ROUNDUP
NATIONAL WEATHER SERVICE JACKSON KY
700 AM EDT TUE SEP 27 2016

NOTE: "FAIR" INDICATES FEW OR NO CLOUDS BELOW 12,000 FEET WITH
NO SIGNIFICANT WEATHER AND/OR OBSTRUCTIONS TO VISIBILITY.

* THESE REPORTS ARE NOT UNDER NWS QUALITY CONTROL AND MAY NOT
  REPORT WEATHER SUCH AS PRECIPITATION AND FOG.

KYZ079-080-083-085-087-088-110-112-115-119-120-271200
...EASTERN KENTUCKY...

CITY           SKY/WX    TMP DP  RH WIND       PRES   REMARKS
JACKSON        FOG       51  50  96 CALM      30.05F VSB 1/4
LONDON         FOG       48  46  93 CALM      30.07R VSB 1/2
SOMERSET*      FOG       50  50 100 CALM      30.08R VSB<1/4
MONTICELLO*    FOG       49  49 100 CALM      30.09R VSB 1/4
WILLIAMSBURG*  PTSUNNY   50  50 100 CALM      30.07R VSB 1/4
MIDDLESBORO*   CLOUDY    60  55  84 N6        30.06R
HARLAN APT*    MOSUNNY   55  52  88 CALM      30.06R
PIKE CO APT*     N/A     53  53 100 CALM      30.06S
BIG SANDY APT* FOG       51  51 100 SW3       30.06S VSB 3/4
MOREHEAD APT*  SUNNY     48  46  93 S3        30.06S FOG
ASHLAND*       CLEAR     48  45  87 CALM      30.02S
$$

KYZ035-036-041-042-044-050-067-078-099-271200
...CENTRAL KENTUCKY...

CITY           SKY/WX    TMP DP  RH WIND       PRES   REMARKS
MT STERLING*   CLEAR     46  46 100 SW6       30.05F
FLEMING/MASON* CLEAR     49  48  97 SW7       30.04S
DANVILLE*      PTCLDY    45  45 100 S3        30.06S
LEXINGTON      CLEAR     50  48  93 SW5       30.03F
FRANKFORT      CLEAR     50  47  89 CALM      30.02F
LOUISVILLE     CLEAR     52  49  89 CALM      30.02F
LEBANON*         N/A     52  50  93 S3        30.05S
GLASGOW*       FOG      N/A N/A N/A CALM      30.05S VSB 3/4
BOWLING GREEN  FOG       48  47  96 CALM      30.05F VSB 1/4
$$

KYZ091>093-OHZ055-061-077-WVZ005-015-034-035-042-271200
...SOUTHERN OHIO/WEST VIRGINIA...

CITY           SKY/WX    TMP DP  RH WIND       PRES   REMARKS
COVINGTON      CLEAR     49  48  97 S6        30.00F
COLUMBUS       CLEAR     49  49 100 SE6       29.98S
DAYTON         CLEAR     50  44  80 SW10      29.98S
WILMINGTON     CLEAR     46  46 100 S5        29.99F
HUNTINGTON     PTCLDY    50  49  96 S3        30.03S FOG
CHARLESTON     FOG       54  53  97 CALM      30.03F VSB 1/2
PINEVILLE*     MOCLDY    52  49  90 MISG      30.10S FOG
BECKLEY        MOCLDY    52  50  93 N3        30.06S
BLUEFIELD      CLOUDY    55  53  93 W6        30.07R
LOGAN CO APT*  FOG       52  52 100 CALM      30.04S VSB<1/4
$$

VAZ002-007-008-TNZ017-027-036-066-071-271200
...SOUTHWEST VIRGINIA/EAST TENNESSEE...

CITY           SKY/WX    TMP DP  RH WIND       PRES   REMARKS
WISE*          FOG       55  55 100 N6        30.08S VSB<1/4
JONESVILLE*    CLOUDY    63  57  82 CALM      30.05S
ABINGDON*      CLOUDY    65  63  92 CALM      30.03S
BRISTOL        CLOUDY    66  63  90 CALM      30.01R
MORRISTOWN*    CLOUDY    66  63  88 N6        30.01R
SEVIERVILLE*   CLOUDY    64  63  94 NW5       30.00S
KNOXVILLE      CLOUDY    64  61  90 N8        30.00R
OAK RIDGE      CLOUDY    64  57  78 VRB3      30.03R
CROSSVILLE     CLOUDY    57  55  93 NE6       30.06S
NASHVILLE      PTCLDY    56  52  86 NW3       30.06S
$$

...KEY TO REMARKS...
VSB - VISIBILITY IN MILES
WCI - WIND CHILL INDEX
HX  - HEAT INDEX

$$




USA.gov is the U.S. government's official web portal to all federal, state and local government web resources and services.